CYXX

Abbotsford International Airport

Airport
ICAO code
CYXX
IATA Code
YXX
Summary
ICAO Region
NAM
ICAO Territory
Location

Abbotsford, British Columbia

Serving
Abbotsford
Elevation
194 ft
Coordinates
49° 1' 31" N , 122° 21' 48" W
KCC
Airport BS
Bird Strike
Airport WX
Fog
Metar
Observation
CYXX 061518Z 22008KT 6SM -RA FEW033 OVC042 06/05 A3031 RMK SC2SC6 SLP267
Station
Abbotsford, B. C.
Date/Time
2023-02-06 15:18:00
Wind direction
220°
Wind speed
08 kts
Lowest cloud amount
few clouds
Temperature
6°C
Dew point
5°C
Humidity
93%
Weather condition
light rain

Description

Abbotsford International Airport is located near Abbotsford, British Columbia, Canada.

Climatology

Temperate Marine climate/Oceanic climate (Köppen climate classification Cfb). Moderately cool summer and comparatively warm winter.

Runways

Designator Length Width Surface Rops
01L/19R 457 30 GRS No/No
1/19 1624 61 ASP Yes/Yes
7/25 2926 61 PEM Yes/Yes

Airport map

Aerial View

SKYbrary Partners:

Safety knowledge contributed by: